Location: La Bilong�re
(48.1297°N, 1.4584°W)
Time: 18:04:25
(UTC+00:00)

Cosmos 1777 Rocket - Pass Details

Date: 03 March 2021
Orbit: 759 x 775 km, 74.0° (Epoch: 20 April)

Event Time Altitude Azimuth Distance (km) Brightness Sun altitude
Rises 20:08:41 0° 334° (NNW) 3,248 7.9 -23.1°
Reaches altitude 10° 20:11:05 10° 332° (NNW) 2,315 7.1 -23.5°
Maximum altitude 20:16:16 65° 252° (WSW) 843 4.3 -24.4°
Enters shadow 20:18:23 35° 183° (S) 1,215 4.8 -24.7°
